period_start,C,m1,H,J0,J1,J2,J3,J4,J5,JA,JB,JC,JD,JJ,JK,JN,#
2016-09-25 00:03:20,0.00,1.30,0.00,24.59,28.52,31.40,14.33,47.79,1008.36,2029.20,2971.68,2783.97,3130.00,600.22,588.25,50.51,0000 0000 0000 0000 000000
2016-09-25 00:08:22,0.02,1.30,0.00,24.63,28.52,31.39,14.31,47.87,1008.36,2029.31,2971.51,2783.98,3130.01,599.97,587.98,50.56,0000 0000 0000 0000 000000
2016-09-25 00:13:23,-0.00,1.30,0.00,24.63,28.52,31.37,14.25,47.92,1008.35,2029.25,2971.44,2783.95,3130.01,599.68,587.59,50.61,0000 0000 0000 0000 000000
2016-09-25 00:18:24,0.02,1.30,0.00,24.64,28.52,31.36,14.25,47.68,1008.33,2029.31,2971.22,2783.93,3130.00,599.72,587.66,50.66,0000 0000 0000 0000 000000
2016-09-25 00:23:26,0.00,1.30,0.00,24.63,28.52,31.37,14.29,47.86,1008.33,2029.23,2971.02,2783.65,3130.00,599.73,587.68,50.71,0000 0000 0000 0000 000000
2016-09-25 00:28:27,0.02,1.30,0.00,24.64,28.53,31.37,14.32,47.82,1008.33,2029.41,2971.00,2783.73,3130.00,599.98,587.86,50.76,0000 0000 0000 0000 000000
2016-09-25 00:33:28,0.00,1.30,0.00,24.62,28.53,31.36,14.40,47.88,1008.32,2029.29,2971.00,2783.37,3129.99,600.37,588.41,50.81,0000 0000 0000 0000 000000
2016-09-25 00:38:29,-0.01,1.30,0.00,24.63,28.53,31.38,14.27,47.83,1008.32,2029.19,2971.00,2783.11,3129.98,600.00,587.96,50.86,0000 0000 0000 0000 000000
2016-09-25 00:43:31,0.00,1.30,0.00,24.65,28.54,31.36,14.28,47.72,1008.32,2029.13,2971.00,2783.09,3129.97,599.98,587.88,50.91,0000 0000 0000 0000 000000
2016-09-25 00:48:32,-0.00,1.30,0.00,24.64,28.54,31.38,14.32,47.81,1008.32,2029.14,2971.00,2783.09,3129.98,599.89,587.76,50.96,0000 0000 0000 0000 000000
2016-09-25 00:53:33,0.00,1.30,0.00,24.65,28.55,31.39,14.29,47.81,1008.32,2029.08,2971.00,2783.07,3129.98,599.82,587.52,51.01,0000 0000 0000 0000 000000
2016-09-25 00:58:34,0.00,1.30,0.00,24.63,28.55,31.38,14.35,47.91,1008.32,2029.12,2971.00,2783.06,3129.98,600.36,588.28,51.06,0000 0000 0000 0000 000000
2016-09-25 01:03:36,-0.00,1.30,0.00,24.64,28.55,31.41,14.29,47.75,1008.32,2029.10,2971.00,2783.08,3129.97,599.88,587.77,51.11,0000 0000 0000 0000 000000
2016-09-25 01:08:37,0.00,1.30,0.00,24.66,28.55,31.39,14.26,47.76,1008.32,2029.07,2970.99,2783.03,3129.93,599.65,587.60,51.16,0000 0000 0000 0000 000000
2016-09-25 01:13:38,-0.00,1.30,0.00,24.68,28.55,31.38,14.32,47.89,1008.31,2029.04,2970.98,2783.01,3129.82,600.12,587.85,51.21,0000 0000 0000 0000 000000
2016-09-25 01:18:40,0.00,1.30,0.00,24.67,28.55,31.37,14.29,47.76,1008.30,2029.03,2970.97,2783.01,3129.62,599.81,587.74,51.26,0000 0000 0000 0000 000000
2016-09-25 01:23:41,0.00,1.30,0.00,24.64,28.55,31.42,14.38,47.74,1008.30,2029.03,2970.85,2783.00,3129.24,600.20,588.08,51.31,0000 0000 0000 0000 000000
2016-09-25 01:28:42,0.00,1.30,0.00,24.64,28.55,31.38,14.38,47.77,1008.25,2029.03,2970.88,2783.00,3129.13,600.58,588.47,51.37,0000 0000 0000 0000 000000
2016-09-25 01:33:44,0.00,1.30,0.00,24.66,28.55,31.41,14.28,47.80,1008.24,2029.01,2970.78,2783.00,3129.08,599.88,587.81,51.42,0000 0000 0000 0000 000000
2016-09-25 01:38:45,0.00,1.30,0.00,24.65,28.56,31.41,14.36,47.77,1008.21,2029.00,2970.87,2782.99,3129.04,600.21,587.97,51.47,0000 0000 0000 0000 000000
2016-09-25 01:43:46,0.00,1.30,0.00,24.66,28.57,31.44,14.32,47.74,1008.04,2029.00,2970.94,2782.99,3129.07,599.90,587.62,51.52,0000 0000 0000 0000 000000
2016-09-25 01:48:47,0.00,1.30,0.00,24.64,28.57,31.41,14.31,47.78,1007.93,2029.00,2970.90,2782.99,3129.03,600.21,587.97,51.57,0000 0000 0000 0000 000000
2016-09-25 01:53:48,0.00,1.30,0.00,24.66,28.57,31.41,14.34,47.75,1007.90,2029.00,2970.75,2782.99,3129.05,600.34,588.00,51.62,0000 0000 0000 0000 000000
2016-09-25 01:58:50,0.01,1.30,0.00,24.67,28.57,31.41,14.34,47.77,1007.86,2029.00,2970.39,2782.99,3129.01,599.98,587.61,51.67,0000 0000 0000 0000 000000
2016-09-25 02:03:51,0.00,1.30,0.00,24.65,28.57,31.42,14.28,47.76,1007.86,2029.00,2970.31,2782.97,3129.01,599.62,587.31,51.72,0000 0000 0000 0000 000000
2016-09-25 02:08:52,0.00,1.30,0.00,24.67,28.57,31.43,14.20,47.72,1007.83,2029.00,2970.13,2782.97,3129.00,599.74,587.20,51.77,0000 0000 0000 0000 000000
2016-09-25 02:13:54,0.00,1.30,0.00,24.70,28.57,31.46,14.30,47.63,1007.84,2029.00,2970.04,2782.96,3129.00,600.00,587.43,51.82,0000 0000 0000 0000 000000
2016-09-25 02:18:55,0.00,1.30,0.00,24.67,28.57,31.46,14.36,47.71,1007.84,2029.00,2970.05,2782.97,3129.00,600.42,587.97,51.87,0000 0000 0000 0000 000000
2016-09-25 02:23:56,0.00,1.30,0.00,24.68,28.57,31.45,14.30,47.70,1007.84,2029.00,2970.04,2782.97,3129.00,600.01,587.51,51.92,0000 0000 0000 0000 000000
2016-09-25 02:28:58,0.00,1.30,0.00,24.67,28.57,31.45,14.29,47.77,1007.84,2029.00,2970.07,2782.98,3129.00,599.70,587.25,51.97,0000 0000 0000 0000 000000
2016-09-25 02:33:59,0.00,1.30,0.00,24.68,28.57,31.47,14.33,47.69,1007.84,2029.00,2970.05,2782.97,3129.00,599.82,587.47,52.02,0000 0000 0000 0000 000000
2016-09-25 02:39:00,0.00,1.30,0.00,24.68,28.57,31.45,14.33,47.69,1007.84,2029.00,2970.04,2782.97,3129.00,600.17,587.70,52.07,0000 0000 0000 0000 000000
2016-09-25 02:44:02,0.00,1.30,0.00,24.68,28.57,31.45,14.24,47.77,1007.84,2029.00,2970.01,2782.93,3129.00,599.91,587.43,52.12,0000 0000 0000 0000 000000
2016-09-25 02:49:03,0.00,1.30,0.00,24.69,28.57,31.48,14.21,47.78,1007.84,2029.00,2970.04,2782.97,3129.00,599.83,587.36,52.17,0000 0000 0000 0000 000000
2016-09-25 02:54:04,0.00,1.30,0.00,24.69,28.57,31.47,14.28,47.74,1007.84,2029.00,2970.01,2782.95,3129.00,599.89,587.46,52.22,0000 0000 0000 0000 000000
2016-09-25 02:59:05,0.00,1.30,0.00,24.70,28.57,31.43,14.37,47.81,1007.84,2029.00,2970.02,2782.94,3129.00,600.24,587.75,52.27,0000 0000 0000 0000 000000
2016-09-25 03:04:06,0.00,1.30,0.00,24.72,28.57,31.41,14.23,47.68,1007.84,2029.00,2970.03,2782.94,3129.00,599.96,587.36,52.33,0000 0000 0000 0000 000000
2016-09-25 03:09:08,0.00,1.30,0.00,24.73,28.57,31.44,14.27,47.67,1007.83,2029.00,2970.01,2782.93,3129.00,600.05,587.40,52.38,0000 0000 0000 0000 000000
2016-09-25 03:14:09,0.00,1.30,0.00,24.73,28.57,31.47,14.29,47.69,1007.83,2029.00,2970.01,2782.93,3129.00,599.88,587.36,52.43,0000 0000 0000 0000 000000
2016-09-25 03:19:11,0.00,1.30,0.00,24.69,28.57,31.41,14.33,47.67,1007.84,2029.00,2970.00,2782.87,3129.00,600.31,587.83,52.48,0000 0000 0000 0000 000000
2016-09-25 03:24:12,0.01,1.30,0.00,24.73,28.58,31.43,14.28,47.71,1007.84,2029.00,2970.00,2782.62,3129.00,600.06,587.56,52.53,0000 0000 0000 0000 000000
2016-09-25 03:29:14,-0.01,1.30,0.00,24.71,28.58,31.41,14.23,47.68,1007.83,2029.00,2970.00,2782.80,3128.99,599.49,587.13,52.58,0000 0000 0000 0000 000000
2016-09-25 03:34:15,0.00,1.30,0.00,24.72,28.58,31.46,14.26,47.76,1007.84,2029.00,2970.00,2782.71,3128.99,599.98,587.49,52.63,0000 0000 0000 0000 000000
2016-09-25 03:39:16,-0.01,1.30,0.00,24.70,28.59,31.47,14.27,47.72,1007.83,2029.00,2970.00,2782.78,3128.99,600.02,587.48,52.68,0000 0000 0000 0000 000000
2016-09-25 03:44:18,0.01,1.30,0.00,24.70,28.60,31.48,14.33,47.79,1007.83,2029.00,2970.00,2782.52,3128.99,600.17,587.79,52.73,0000 0000 0000 0000 000000
2016-09-25 03:49:19,0.00,1.30,0.00,24.73,28.60,31.48,14.33,47.78,1007.83,2029.00,2969.96,2782.13,3128.95,600.13,587.61,52.78,0000 0000 0000 0000 000000
2016-09-25 03:54:20,-0.00,1.30,0.00,24.78,28.60,31.45,14.28,47.81,1007.83,2028.99,2969.97,2782.11,3128.94,599.96,587.31,52.83,0000 0000 0000 0000 000000
2016-09-25 03:59:21,0.00,1.30,0.00,24.75,28.60,31.43,14.28,47.89,1007.83,2028.99,2969.95,2782.06,3128.82,600.00,587.41,52.88,0000 0000 0000 0000 000000
2016-09-25 04:04:23,0.01,1.30,0.00,24.76,28.60,31.47,14.35,47.83,1007.83,2028.98,2969.79,2782.01,3128.43,600.12,587.56,52.93,0000 0000 0000 0000 000000
2016-09-25 04:09:24,0.01,1.30,0.00,24.74,28.60,31.48,14.32,47.84,1007.83,2028.98,2969.35,2782.00,3128.19,600.21,587.58,52.98,0000 0000 0000 0000 000000
2016-09-25 04:14:26,-0.00,1.30,0.00,24.77,28.60,31.48,14.20,47.84,1007.83,2028.98,2969.43,2782.00,3128.14,599.85,587.22,53.03,0000 0000 0000 0000 000000
2016-09-25 04:19:27,-0.00,1.30,0.00,24.82,28.61,31.51,14.30,47.88,1007.83,2028.94,2969.43,2782.00,3128.06,600.00,587.32,53.08,0000 0000 0000 0000 000000
2016-09-25 04:24:28,0.00,1.30,0.00,24.73,28.62,31.49,14.33,47.90,1007.83,2028.93,2969.18,2782.00,3128.02,600.24,587.68,53.13,0000 0000 0000 0000 000000
2016-09-25 04:29:29,0.00,1.30,0.00,24.75,28.62,31.45,14.20,47.83,1007.84,2028.94,2969.13,2782.00,3128.01,599.81,587.18,53.18,0000 0000 0000 0000 000000
2016-09-25 04:34:31,-0.00,1.30,0.00,24.76,28.62,31.47,14.23,47.84,1007.84,2028.89,2969.05,2782.00,3128.01,599.77,587.17,53.23,0000 0000 0000 0000 000000
2016-09-25 04:39:32,0.00,1.30,0.00,24.72,28.62,31.46,14.23,47.75,1007.83,2028.88,2969.04,2782.00,3128.01,599.94,587.37,53.29,0000 0000 0000 0000 000000
2016-09-25 04:44:33,-0.00,1.30,0.00,24.79,28.62,31.44,14.27,47.76,1007.83,2028.89,2969.00,2781.99,3128.00,600.03,587.38,53.34,0000 0000 0000 0000 000000
2016-09-25 04:49:34,-0.00,1.30,0.00,24.74,28.62,31.46,14.29,47.80,1007.83,2028.90,2969.00,2781.99,3128.00,599.37,587.01,53.39,0000 0000 0000 0000 000000
2016-09-25 04:54:35,-0.01,1.30,0.00,24.75,28.63,31.45,14.28,47.69,1007.83,2028.78,2969.00,2781.97,3128.00,599.67,587.18,53.44,0000 0000 0000 0000 000000
2016-09-25 04:59:36,0.00,1.30,0.00,24.78,28.64,31.43,14.29,47.73,1007.83,2028.81,2969.00,2781.98,3128.00,600.04,587.41,53.49,0000 0000 0000 0000 000000
2016-09-25 05:04:37,-0.01,1.30,0.00,24.75,28.64,31.44,14.32,47.63,1007.84,2028.83,2969.00,2781.98,3128.00,600.10,587.44,53.54,0000 0000 0000 0000 000000
2016-09-25 05:09:39,0.01,1.30,0.00,24.77,28.65,31.45,14.26,47.66,1007.85,2028.89,2968.99,2781.96,3128.00,600.09,587.48,53.59,0000 0000 0000 0000 000000
2016-09-25 05:14:40,-0.01,1.30,0.00,24.76,28.65,31.45,14.21,47.68,1007.84,2028.77,2968.88,2781.69,3127.98,599.81,587.19,53.64,0000 0000 0000 0000 000000
2016-09-25 05:19:41,0.01,1.30,0.00,24.77,28.65,31.43,14.29,47.77,1007.84,2028.76,2968.71,2781.44,3127.96,599.78,587.16,53.69,0000 0000 0000 0000 000000
2016-09-25 05:24:43,0.00,1.30,0.00,24.80,28.65,31.43,14.34,47.67,1007.84,2028.69,2968.72,2781.35,3127.95,600.12,587.42,53.74,0000 0000 0000 0000 000000
2016-09-25 05:29:44,0.00,1.30,0.00,24.78,28.65,31.43,14.33,47.75,1007.86,2028.87,2968.78,2781.55,3127.96,599.94,587.49,53.79,0000 0000 0000 0000 000000
2016-09-25 05:34:45,0.01,1.30,0.00,24.79,28.65,31.43,14.30,47.74,1007.87,2028.89,2968.61,2781.43,3127.94,599.82,587.27,53.84,0000 0000 0000 0000 000000
2016-09-25 05:39:47,0.01,1.30,0.00,24.76,28.65,31.50,14.30,47.63,1007.91,2028.93,2968.51,2781.39,3127.93,600.08,587.46,53.89,0000 0000 0000 0000 000000
2016-09-25 05:44:48,0.01,1.30,0.00,24.77,28.65,31.47,14.25,47.67,1007.94,2028.92,2968.17,2781.25,3127.92,599.92,587.27,53.94,0000 0000 0000 0000 000000
2016-09-25 05:49:49,0.01,1.30,0.00,24.78,28.65,31.45,14.30,47.67,1007.95,2028.96,2968.07,2781.08,3127.91,599.91,587.32,53.99,0000 0000 0000 0000 000000
2016-09-25 05:54:50,-0.01,1.31,0.00,24.79,28.65,31.45,14.29,47.70,1007.97,2028.95,2968.09,2781.17,3127.91,600.44,587.92,54.04,0000 0000 0000 0000 000000
2016-09-25 05:59:52,0.01,1.31,0.00,24.74,28.67,31.45,14.34,47.73,1007.89,2028.95,2968.03,2781.09,3127.83,600.05,587.52,54.09,0000 0000 0000 0000 000000
2016-09-25 06:04:53,0.00,1.31,0.00,24.75,28.67,31.46,14.19,47.72,1007.87,2028.91,2968.02,2781.04,3127.54,599.95,587.33,54.14,0000 0000 0000 0000 000000
2016-09-25 06:09:54,-0.00,1.31,0.00,24.76,28.67,31.43,14.40,47.85,1007.86,2028.87,2968.02,2781.03,3127.31,600.09,587.49,54.20,0000 0000 0000 0000 000000
2016-09-25 06:14:56,-0.00,1.30,0.00,24.82,28.67,31.45,14.29,47.77,1007.85,2028.80,2968.02,2781.02,3127.19,599.99,587.23,54.25,0000 0000 0000 0000 000000
2016-09-25 06:19:57,-0.02,1.30,0.00,24.79,28.67,31.43,14.25,47.76,1007.86,2028.53,2968.04,2781.01,3127.06,599.84,587.17,54.30,0000 0000 0000 0000 000000
2016-09-25 06:24:58,-0.03,1.30,0.00,24.75,28.67,31.45,14.35,47.80,1007.86,2028.20,2968.01,2781.01,3127.03,600.02,587.43,54.35,0000 0000 0000 0000 000000
2016-09-25 06:30:00,0.00,1.30,0.00,24.80,28.68,31.49,14.21,47.88,1007.85,2028.15,2968.00,2781.00,3127.00,599.98,587.29,54.40,0000 0000 0000 0000 000000
2016-09-25 06:35:01,-0.01,1.30,0.00,24.81,28.68,31.44,14.25,47.83,1007.84,2028.07,2968.00,2781.00,3127.00,599.56,586.91,54.45,0000 0000 0000 0000 000000
2016-09-25 06:40:03,0.01,1.30,0.00,24.82,28.68,31.45,14.33,47.84,1007.85,2028.10,2968.00,2781.00,3127.00,600.21,587.49,54.50,0000 0000 0000 0000 000000
2016-09-25 06:45:04,-0.00,1.30,0.00,24.78,28.69,31.45,14.25,47.76,1007.85,2028.11,2967.99,2781.00,3127.00,599.93,587.16,54.55,0000 0000 0000 0000 000000
2016-09-25 06:50:05,0.00,1.30,0.00,24.77,28.69,31.46,14.31,47.76,1007.83,2028.07,2967.99,2781.00,3127.00,600.14,587.53,54.60,0000 0000 0000 0000 000000
2016-09-25 06:55:06,-0.00,1.30,0.00,24.80,28.69,31.45,14.35,47.71,1007.85,2028.11,2967.98,2781.00,3127.00,600.27,587.59,54.65,0000 0000 0000 0000 000000
2016-09-25 07:00:07,-0.01,1.30,0.00,24.78,28.69,31.45,14.27,47.67,1007.84,2028.05,2967.98,2780.99,3126.99,600.05,587.38,54.70,0000 0000 0000 0000 000000
2016-09-25 07:05:09,0.00,1.30,0.00,24.78,28.69,31.43,14.25,47.73,1007.85,2028.05,2967.96,2780.98,3126.99,599.96,587.32,54.75,0000 0000 0000 0000 000000
2016-09-25 07:10:10,0.01,1.30,0.00,24.82,28.69,31.42,14.27,47.80,1007.84,2028.02,2967.59,2780.94,3126.96,600.27,587.52,54.80,0000 0000 0000 0000 000000
2016-09-25 07:15:12,0.00,1.30,0.00,24.76,28.69,31.49,14.29,47.71,1007.84,2028.04,2967.50,2780.95,3126.99,599.93,587.31,54.85,0000 0000 0000 0000 000000
2016-09-25 07:20:13,0.01,1.30,0.00,24.77,28.68,31.45,14.21,47.63,1007.84,2028.05,2967.29,2780.94,3126.95,599.94,587.38,54.90,0000 0000 0000 0000 000000
2016-09-25 07:25:14,0.00,1.30,0.00,24.77,28.68,31.44,14.33,47.66,1007.84,2028.06,2967.29,2780.96,3126.96,600.10,587.50,54.95,0000 0000 0000 0000 000000
2016-09-25 07:30:15,0.01,1.30,0.00,24.76,28.68,31.43,14.19,47.66,1007.85,2028.16,2967.36,2780.97,3126.98,599.63,587.03,55.00,0000 0000 0000 0000 000000
2016-09-25 07:35:17,-0.00,1.30,0.00,24.75,28.68,31.48,14.21,47.61,1007.89,2028.10,2967.15,2780.96,3126.94,599.72,587.17,55.05,0000 0000 0000 0000 000000
2016-09-25 07:40:18,0.00,1.30,0.00,24.75,28.67,31.45,14.31,47.64,1007.88,2028.05,2967.05,2780.87,3126.91,600.34,587.78,55.10,0000 0000 0000 0000 000000
2016-09-25 07:45:19,0.00,1.30,0.00,24.79,28.67,31.42,14.26,47.66,1007.89,2028.07,2967.05,2780.88,3126.95,599.87,587.29,55.16,0000 0000 0000 0000 000000
2016-09-25 07:50:21,0.00,1.30,0.00,24.82,28.67,31.43,14.19,47.69,1007.88,2028.10,2967.02,2780.90,3126.92,599.95,587.26,55.21,0000 0000 0000 0000 000000
2016-09-25 07:55:22,0.01,1.30,0.00,24.72,28.67,31.43,14.32,47.62,1007.86,2028.28,2967.01,2780.93,3126.96,600.08,587.58,55.26,0000 0000 0000 0000 000000
2016-09-25 08:00:23,0.02,1.30,0.00,24.72,28.67,31.43,14.22,47.58,1007.90,2028.34,2967.00,2780.80,3126.94,599.70,587.15,55.31,0000 0000 0000 0000 000000
2016-09-25 08:05:25,0.01,1.30,0.00,24.71,28.67,31.43,14.28,47.66,1008.05,2028.49,2967.00,2780.79,3126.93,599.59,587.22,55.36,0000 0000 0000 0000 000000
2016-09-25 08:10:26,0.01,1.31,0.00,24.80,28.67,31.42,14.31,47.59,1008.12,2028.56,2966.99,2780.75,3126.89,599.73,587.20,55.41,0000 0000 0000 0000 000000
2016-09-25 08:15:27,0.00,1.31,0.00,24.79,28.67,31.40,14.26,47.56,1008.19,2028.55,2966.99,2780.69,3126.78,599.91,587.39,55.46,0000 0000 0000 0000 000000
2016-09-25 08:20:28,0.00,1.31,0.00,24.75,28.67,31.44,14.28,47.49,1008.28,2028.28,2966.99,2780.27,3126.33,599.56,587.24,55.51,0000 0000 0000 0000 000000
2016-09-25 08:25:29,0.00,1.31,0.00,24.71,28.67,31.44,14.29,47.63,1008.31,2028.34,2966.96,2780.23,3126.27,600.12,587.80,55.56,0000 0000 0000 0000 000000
2016-09-25 08:30:31,-0.00,1.31,0.00,24.74,28.67,31.45,14.31,47.58,1008.31,2028.26,2966.97,2780.14,3126.15,600.16,587.90,55.61,0000 0000 0000 0000 000000
2016-09-25 08:35:33,0.00,1.31,0.00,24.74,28.67,31.41,14.24,47.71,1008.31,2028.21,2966.89,2780.02,3126.05,599.35,587.07,55.66,0000 0000 0000 0000 000000
2016-09-25 08:40:34,0.01,1.31,0.00,24.66,28.67,31.40,14.34,47.67,1008.31,2028.28,2966.93,2780.07,3126.04,600.35,588.12,55.71,0000 0000 0000 0000 000000
2016-09-25 08:45:35,0.00,1.31,0.00,24.68,28.67,31.41,14.28,47.61,1008.31,2028.28,2966.59,2780.03,3126.02,599.98,587.87,55.76,0000 0000 0000 0000 000000
2016-09-25 08:50:37,0.02,1.31,0.00,24.75,28.67,31.44,14.30,47.60,1008.31,2028.45,2966.64,2780.05,3126.06,599.97,587.64,55.81,0000 0000 0000 0000 000000
2016-09-25 08:55:38,0.01,1.31,0.00,24.73,28.67,31.42,14.32,47.68,1008.32,2028.48,2966.24,2780.01,3126.01,600.17,587.90,55.86,0000 0000 0000 0000 000000
2016-09-25 09:00:39,-0.00,1.31,0.00,24.68,28.67,31.44,14.33,47.60,1008.32,2028.54,2966.09,2780.00,3126.01,599.86,587.65,55.91,0000 0000 0000 0000 000000
2016-09-25 09:05:41,-0.01,1.31,0.00,24.71,28.67,31.42,14.31,47.62,1008.32,2028.47,2966.02,2780.00,3126.00,599.79,587.57,55.96,0000 0000 0000 0000 000000
2016-09-25 09:10:42,0.02,1.31,0.00,24.69,28.67,31.41,14.37,47.62,1008.34,2028.58,2966.03,2780.01,3126.00,600.15,587.99,56.01,0000 0000 0000 0000 000000
2016-09-25 09:15:43,0.00,1.31,0.00,24.70,28.67,31.39,14.28,47.73,1008.33,2028.71,2966.02,2780.01,3126.00,599.97,587.88,56.06,0000 0000 0000 0000 000000
2016-09-25 09:20:44,0.00,1.31,0.00,24.73,28.67,31.40,14.26,47.63,1008.33,2028.69,2966.01,2780.00,3126.00,599.65,587.27,56.12,0000 0000 0000 0000 000000
2016-09-25 09:25:45,0.01,1.31,0.00,24.75,28.67,31.42,14.27,47.63,1008.33,2028.87,2966.01,2780.00,3126.00,599.80,587.50,56.17,0000 0000 0000 0000 000000
2016-09-25 09:30:47,-0.01,1.31,0.00,24.71,28.67,31.41,14.35,47.67,1008.32,2028.72,2966.02,2780.00,3126.00,600.23,587.97,56.22,0000 0000 0000 0000 000000
2016-09-25 09:35:48,-0.00,1.31,0.00,24.73,28.67,31.41,14.27,47.65,1008.32,2028.59,2966.00,2780.00,3126.00,599.88,587.63,56.27,0000 0000 0000 0000 000000
2016-09-25 09:40:50,0.01,1.31,0.00,24.77,28.67,31.41,14.38,47.58,1008.33,2028.76,2966.00,2780.00,3126.00,600.20,587.84,56.32,0000 0000 0000 0000 000000
2016-09-25 09:45:51,0.01,1.31,0.00,24.74,28.67,31.43,14.29,47.60,1008.32,2028.91,2966.00,2780.00,3126.00,600.04,587.76,56.37,0000 0000 0000 0000 000000
2016-09-25 09:50:52,-0.01,1.31,0.00,24.70,28.67,31.43,14.25,47.60,1008.32,2028.90,2966.00,2780.00,3126.00,600.02,587.86,56.42,0000 0000 0000 0000 000000
2016-09-25 09:55:53,-0.00,1.31,0.00,24.75,28.67,31.39,14.19,47.64,1008.33,2028.88,2966.00,2780.00,3126.00,599.85,587.47,56.47,0000 0000 0000 0000 000000
2016-09-25 10:00:54,-0.00,1.31,0.00,24.70,28.67,31.43,14.28,47.67,1008.33,2028.90,2966.00,2780.00,3126.00,599.79,587.64,56.52,0000 0000 0000 0000 000000
2016-09-25 10:05:55,-0.01,1.31,0.00,24.65,28.67,31.41,14.32,47.67,1008.33,2028.86,2966.00,2780.00,3126.00,599.99,587.89,56.57,0000 0000 0000 0000 000000
2016-09-25 10:10:57,-0.00,1.31,0.00,24.68,28.67,31.43,14.32,47.56,1008.34,2028.86,2966.00,2780.00,3126.00,599.96,587.80,56.62,0000 0000 0000 0000 000000
2016-09-25 10:15:58,-0.00,1.31,0.00,24.70,28.67,31.40,14.33,47.62,1008.33,2028.76,2966.00,2780.00,3126.00,600.20,587.88,56.67,0000 0000 0000 0000 000000
2016-09-25 10:20:59,-0.02,1.31,0.00,24.75,28.67,31.43,14.25,47.49,1008.33,2028.60,2966.00,2780.00,3125.97,599.89,587.65,56.72,0000 0000 0000 0000 000000
2016-09-25 10:26:00,0.02,1.31,0.00,24.75,28.67,31.41,14.31,47.57,1008.32,2028.61,2965.97,2780.00,3125.98,599.99,587.69,56.77,0000 0000 0000 0000 000000
2016-09-25 10:31:02,-0.00,1.31,0.00,24.74,28.67,31.41,14.24,47.52,1008.32,2028.61,2965.97,2780.00,3125.97,599.58,587.25,56.82,0000 0000 0000 0000 000000
2016-09-25 10:36:03,-0.01,1.31,0.00,24.61,28.67,31.45,14.32,47.59,1008.32,2028.54,2965.97,2779.99,3125.96,599.89,587.88,56.87,0000 0000 0000 0000 000000
2016-09-25 10:41:05,0.02,1.31,0.00,24.73,28.67,31.44,14.38,47.58,1008.32,2028.69,2965.98,2779.99,3125.97,600.37,588.02,56.92,0000 0000 0000 0000 000000
2016-09-25 10:46:06,-0.00,1.31,0.00,24.69,28.67,31.42,14.31,47.48,1008.32,2028.77,2965.97,2779.99,3125.98,599.74,587.56,56.97,0000 0000 0000 0000 000000
2016-09-25 10:51:07,-0.01,1.31,0.00,24.68,28.67,31.41,14.35,47.47,1008.32,2028.72,2965.96,2779.99,3125.97,600.13,587.97,57.02,0000 0000 0000 0000 000000
2016-09-25 10:56:08,0.01,1.31,0.00,24.72,28.67,31.41,14.26,47.45,1008.32,2028.69,2965.98,2779.99,3125.97,599.97,587.73,57.08,0000 0000 0000 0000 000000
2016-09-25 11:01:09,-0.03,1.31,0.00,24.67,28.67,31.40,14.35,47.48,1008.32,2028.52,2965.85,2779.99,3125.91,600.58,588.35,57.13,0000 0000 0000 0000 000000
2016-09-25 11:06:10,0.00,1.31,0.00,24.70,28.67,31.38,14.30,47.41,1008.32,2028.48,2965.80,2779.97,3125.90,600.14,587.94,57.18,0000 0000 0000 0000 000000
2016-09-25 11:11:12,0.01,1.31,0.00,24.68,28.67,31.44,14.28,47.47,1008.32,2028.57,2965.79,2779.98,3125.88,599.83,587.67,57.23,0000 0000 0000 0000 000000
2016-09-25 11:16:13,-0.01,1.31,0.00,24.69,28.67,31.41,14.19,47.43,1008.32,2028.48,2965.58,2779.97,3125.72,599.84,587.63,57.28,0000 0000 0000 0000 000000
2016-09-25 11:21:14,0.02,1.31,0.00,24.65,28.67,31.39,14.39,47.54,1008.32,2028.55,2965.49,2779.97,3125.60,600.17,587.99,57.33,0000 0000 0000 0000 000000
2016-09-25 11:26:15,0.00,1.31,0.00,24.59,28.67,31.40,14.37,47.52,1008.32,2028.63,2965.62,2779.97,3125.75,600.18,588.18,57.38,0000 0000 0000 0000 000000
2016-09-25 11:31:16,-0.01,1.31,0.00,24.71,28.67,31.42,14.28,47.44,1008.32,2028.49,2965.33,2779.95,3125.54,599.99,587.72,57.43,0000 0000 0000 0000 000000
2016-09-25 11:36:17,0.02,1.31,0.00,24.73,28.67,31.42,14.28,47.50,1008.32,2028.43,2965.10,2779.94,3125.27,600.30,588.02,57.48,0000 0000 0000 0000 000000
2016-09-25 11:41:18,0.01,1.31,0.00,24.66,28.67,31.43,14.29,47.50,1008.32,2028.53,2965.07,2779.91,3125.18,600.17,587.97,57.53,0000 0000 0000 0000 000000
2016-09-25 11:46:19,-0.01,1.31,0.00,24.68,28.67,31.39,14.23,47.52,1008.32,2028.50,2965.08,2779.90,3125.13,599.70,587.59,57.58,0000 0000 0000 0000 000000
2016-09-25 11:51:21,-0.02,1.31,0.00,24.75,28.67,31.40,14.31,47.38,1008.32,2028.25,2965.07,2779.85,3125.06,600.07,587.76,57.63,0000 0000 0000 0000 000000
2016-09-25 11:56:22,-0.00,1.31,0.00,24.73,28.67,31.43,14.34,47.45,1008.32,2028.13,2965.06,2779.76,3125.03,599.90,587.63,57.68,0000 0000 0000 0000 000000
2016-09-25 12:01:23,0.01,1.31,0.00,24.75,28.67,31.42,14.30,47.58,1008.32,2028.10,2965.02,2779.52,3125.01,599.90,587.63,57.73,0000 0000 0000 0000 000000
2016-09-25 12:06:25,-0.01,1.31,0.00,24.66,28.67,31.38,14.24,47.45,1008.32,2028.10,2965.04,2779.68,3125.03,600.01,587.90,57.78,0000 0000 0000 0000 000000
2016-09-25 12:11:26,0.01,1.31,0.00,24.69,28.67,31.40,14.28,47.52,1008.32,2028.05,2965.00,2779.32,3125.01,599.78,587.58,57.83,0000 0000 0000 0000 000000
2016-09-25 12:16:27,0.00,1.31,0.00,24.66,28.67,31.41,14.25,47.41,1008.32,2028.06,2965.01,2779.34,3125.01,599.86,587.73,57.88,0000 0000 0000 0000 000000
2016-09-25 12:21:28,0.00,1.31,0.00,24.69,28.67,31.40,14.26,47.53,1008.32,2028.06,2965.00,2779.25,3125.00,599.98,587.91,57.93,0000 0000 0000 0000 000000
2016-09-25 12:26:29,0.00,1.31,0.00,24.69,28.67,31.42,14.31,47.49,1008.32,2028.04,2965.00,2779.14,3125.00,600.14,587.83,57.98,0000 0000 0000 0000 000000
2016-09-25 12:31:31,0.00,1.31,0.00,24.69,28.67,31.42,14.25,47.49,1008.32,2028.03,2965.00,2779.08,3125.00,599.61,587.48,58.03,0000 0000 0000 0000 000000
2016-09-25 12:36:32,0.00,1.31,0.00,24.73,28.67,31.41,14.24,47.44,1008.32,2028.03,2965.00,2779.07,3125.00,599.85,587.68,58.09,0000 0000 0000 0000 000000
2016-09-25 12:41:33,0.00,1.31,0.00,24.66,28.67,31.41,14.23,47.48,1008.31,2028.03,2965.00,2779.05,3125.00,599.79,587.62,58.14,0000 0000 0000 0000 000000
2016-09-25 12:46:34,-0.00,1.31,0.00,24.69,28.67,31.42,14.30,47.50,1008.29,2028.01,2964.99,2779.03,3125.00,599.86,587.53,58.19,0000 0000 0000 0000 000000
2016-09-25 12:51:35,0.00,1.31,0.00,24.69,28.67,31.41,14.30,47.52,1008.30,2028.03,2964.99,2779.04,3125.00,600.23,588.03,58.24,0000 0000 0000 0000 000000
2016-09-25 12:56:37,0.00,1.31,0.00,24.71,28.67,31.41,14.31,47.35,1008.29,2028.02,2964.99,2779.04,3125.00,600.18,587.79,58.29,0000 0000 0000 0000 000000